Estación de Trehualemu

Ultimos registro cada 15 minutos 29
Estación Fecha / Hora Temperatura Humedad Lluvia Velocidad Dirección Radiación Presion
29 Trehualemu 09-05-2026 07:15 3 84 0 0 130 0 1007,4
28 Trehualemu 09-05-2026 07:00 3,2 84 0 0 130 0 1007,4
27 Trehualemu 09-05-2026 06:45 3,3 85 0 0 130 0 1007,6
26 Trehualemu 09-05-2026 06:30 2,7 86 0 0 158 0 1007,6
25 Trehualemu 09-05-2026 06:15 2,8 86 0 0 160 0 1007,9
24 Trehualemu 09-05-2026 06:00 2,7 87 0 0 160 0 1007,9
23 Trehualemu 09-05-2026 05:45 2,8 86 0 0 160 0 1008
22 Trehualemu 09-05-2026 05:30 3,1 86 0 0 184 0 1008
21 Trehualemu 09-05-2026 05:15 3,3 85 0 0 184 0 1007,9
20 Trehualemu 09-05-2026 05:00 3,4 86 0 0 184 0 1007,9
19 Trehualemu 09-05-2026 04:45 3,2 88 0 0 185 0 1008
18 Trehualemu 09-05-2026 04:30 2,6 89 0 0 186 0 1008,2
17 Trehualemu 09-05-2026 04:15 2,6 89 0 0 186 0 1008,2
16 Trehualemu 09-05-2026 03:45 3,4 87 0 0 186 0 1008,6
15 Trehualemu 09-05-2026 03:30 3,4 87 0 0 186 0 1008,6
14 Trehualemu 09-05-2026 03:15 3,2 88 0 0 186 0 1008,8
13 Trehualemu 09-05-2026 03:00 3,2 88 0 0 186 0 1008,8
12 Trehualemu 09-05-2026 02:45 3,9 88 0 0 186 0 1008,7
11 Trehualemu 09-05-2026 02:30 3,9 88 0 0 186 0 1008,7
10 Trehualemu 09-05-2026 02:15 4,4 90 0 0 159 0 1008,7
9 Trehualemu 09-05-2026 02:00 4,4 90 0 0 159 0 1008,7
8 Trehualemu 09-05-2026 01:45 4,1 92 0 0 159 0 1008,7
7 Trehualemu 09-05-2026 01:30 4,1 92 0 0 159 0 1008,7
6 Trehualemu 09-05-2026 01:15 4,3 94 0 0 159 0 1008,7
5 Trehualemu 09-05-2026 01:00 4,3 94 0 0 159 0 1008,7
4 Trehualemu 09-05-2026 00:45 4,6 94 0 0 157 0 1008,7
3 Trehualemu 09-05-2026 00:30 4,6 94 0 0 157 0 1008,7
2 Trehualemu 09-05-2026 00:15 5,3 94 0 0 157 0 1008,3
1 Trehualemu 09-05-2026 00:00 5,3 94 0 0 157 0 1008,3